• In Belarus
  • List of Countries
  • For 7 days
  • Water Temperature
  • Satellite Maps
  • Weather Map
  • Weather Widgets
  • user-avatar
    Login

    Hourly Weather Algiers

    Today, 17 October, Wednesday

    Time Temperature Precipitation Wind Pressure Humidity
    00:00 +19°C° 0.9 mm 3 mps 747 mmHg 82%
    01:00 +19°C° 0.5 mm 3 mps 747 mmHg 82%
    02:00 +19°C° 0.5 mm 3 mps 746 mmHg 82%
    03:00 +19°C° 0.5 mm 3 mps 746 mmHg 82%
    04:00 +19°C° 0.6 mm 3 mps 746 mmHg 82%
    05:00 +19°C° 0.6 mm 3 mps 746 mmHg 82%
    06:00 +19°C° 0.6 mm 3 mps 746 mmHg 82%
    07:00 +19°C° 0.6 mm 3 mps 746 mmHg 79%
    08:00 +20°C° 0.6 mm 3 mps 746 mmHg 75%
    09:00 +21°C° 0.6 mm 3 mps 746 mmHg 71%
    10:00 +21°C° 0.5 mm 3 mps 746 mmHg 69%
    11:00 +22°C° 0.5 mm 3 mps 746 mmHg 67%
    12:00 +22°C° 0.5 mm 3 mps 746 mmHg 65%
    13:00 +22°C° 1 mm 3 mps 746 mmHg 66%
    14:00 +22°C° 1 mm 3 mps 745 mmHg 67%
    15:00 +22°C° 1 mm 3 mps 745 mmHg 68%
    16:00 +21°C° 0.6 mm 3 mps 745 mmHg 72%
    17:00 +21°C° 0.6 mm 3 mps 745 mmHg 76%
    18:00 +20°C° 0.6 mm 3 mps 745 mmHg 80%
    19:00 +20°C° 0.5 mm 3 mps 745 mmHg 82%
    20:00 +19°C° 0.5 mm 3 mps 745 mmHg 83%
    21:00 +19°C° 0.5 mm 3 mps 746 mmHg 84%
    22:00 +19°C° 0.5 mm 3 mps 745 mmHg 84%
    23:00 +19°C° 0.5 mm 3 mps 745 mmHg 85%

    Tomorrow, 18 October, Thursday

    Time Temperature Precipitation Wind Pressure Humidity
    00:00 +19°C° 0.5 mm 3 mps 745 mmHg 85%
    01:00 +19°C° 0.3 mm 3 mps 744 mmHg 85%
    02:00 +19°C° 0.3 mm 3 mps 744 mmHg 86%
    03:00 +18°C° 0.3 mm 3 mps 744 mmHg 87%
    04:00 +18°C° 0.3 mm 3 mps 744 mmHg 87%
    05:00 +18°C° 0.3 mm 3 mps 743 mmHg 87%
    06:00 +18°C° 0.3 mm 3 mps 743 mmHg 88%
    07:00 +19°C° 0.1 mm 3 mps 743 mmHg 83%
    08:00 +20°C° 0.1 mm 3 mps 743 mmHg 77%
    09:00 +21°C° 0.1 mm 3 mps 743 mmHg 72%
    10:00 +21°C° 0 mm 3 mps 743 mmHg 69%
    11:00 +22°C° 0 mm 3 mps 743 mmHg 66%
    12:00 +24°C° 0 mm 3 mps 742 mmHg 63%
    13:00 +24°C° 0 mm 3 mps 742 mmHg 64%
    14:00 +24°C° 0 mm 3 mps 742 mmHg 65%
    15:00 +24°C° 0 mm 3 mps 741 mmHg 66%
    16:00 +22°C° 0 mm 3 mps 741 mmHg 70%
    17:00 +21°C° 0 mm 2 mps 742 mmHg 75%
    18:00 +21°C° 0 mm 2 mps 742 mmHg 80%
    19:00 +20°C° 0 mm 2 mps 742 mmHg 82%
    20:00 +20°C° 0 mm 2 mps 742 mmHg 83%
    21:00 +20°C° 0 mm 3 mps 743 mmHg 85%
    22:00 +20°C° 0 mm 3 mps 743 mmHg 84%
    23:00 +19°C° 0 mm 3 mps 742 mmHg 84%

    Day after tomorrow, 19 October, Friday

    Time Temperature Precipitation Wind Pressure Humidity
    00:00 +19°C° 0 mm 3 mps 742 mmHg 83%
    01:00 +19°C° 0 mm 3 mps 742 mmHg 82%
    02:00 +19°C° 0 mm 3 mps 743 mmHg 82%
    03:00 +19°C° 0 mm 2 mps 743 mmHg 82%
    04:00 +19°C° 0 mm 2 mps 743 mmHg 82%
    05:00 +19°C° 0 mm 2 mps 744 mmHg 82%
    06:00 +18°C° 0 mm 2 mps 744 mmHg 82%
    07:00 +20°C° 0 mm 2 mps 745 mmHg 75%
    08:00 +23°C° 0 mm 2 mps 745 mmHg 67%
    09:00 +24°C° 0 mm 2 mps 746 mmHg 59%
    10:00 +25°C° 0 mm 2 mps 746 mmHg 54%
    11:00 +27°C° 0 mm 3 mps 746 mmHg 49%
    12:00 +28°C° 0 mm 3 mps 746 mmHg 44%
    13:00 +28°C° 0 mm 3 mps 746 mmHg 46%
    14:00 +27°C° 0 mm 4 mps 746 mmHg 49%
    15:00 +27°C° 0 mm 5 mps 746 mmHg 51%
    16:00 +26°C° 0.3 mm 5 mps 746 mmHg 60%
    17:00 +25°C° 0.3 mm 5 mps 747 mmHg 69%
    18:00 +22°C° 0.3 mm 4 mps 747 mmHg 78%
    19:00 +22°C° 0.1 mm 4 mps 747 mmHg 79%
    20:00 +22°C° 0.1 mm 4 mps 748 mmHg 80%
    21:00 +22°C° 0.1 mm 4 mps 748 mmHg 81%
    22:00 +22°C° 0 mm 4 mps 748 mmHg 78%
    23:00 +22°C° 0 mm 4 mps 748 mmHg 74%

    20 October, Saturday

    Time Temperature Precipitation Wind Pressure Humidity
    00:00 +22°C° 0 mm 3 mps 748 mmHg 71%
    01:00 +21°C° 0 mm 3 mps 748 mmHg 69%
    02:00 +21°C° 0 mm 3 mps 748 mmHg 67%
    03:00 +21°C° 0 mm 3 mps 748 mmHg 65%
    04:00 +21°C° 0 mm 4 mps 748 mmHg 64%
    05:00 +21°C° 0 mm 4 mps 748 mmHg 63%
    06:00 +20°C° 0 mm 4 mps 748 mmHg 62%
    07:00 +22°C° 0 mm 4 mps 749 mmHg 54%
    08:00 +25°C° 0 mm 4 mps 749 mmHg 47%
    09:00 +27°C° 0 mm 4 mps 749 mmHg 39%
    10:00 +28°C° 0 mm 4 mps 749 mmHg 36%
    11:00 +29°C° 0 mm 4 mps 749 mmHg 33%
    12:00 +32°C° 0 mm 5 mps 749 mmHg 29%
    13:00 +30°C° 0 mm 5 mps 749 mmHg 31%
    14:00 +30°C° 0 mm 5 mps 749 mmHg 33%
    15:00 +30°C° 0 mm 5 mps 748 mmHg 34%
    16:00 +29°C° 0 mm 5 mps 748 mmHg 41%
    17:00 +27°C° 0 mm 4 mps 749 mmHg 48%
    18:00 +26°C° 0 mm 4 mps 749 mmHg 55%
    19:00 +26°C° 0 mm 4 mps 749 mmHg 55%
    20:00 +25°C° 0 mm 4 mps 750 mmHg 56%
    21:00 +25°C° 0 mm 4 mps 750 mmHg 57%
    22:00 +25°C° 0 mm 4 mps 750 mmHg 57%
    23:00 +23°C° 0 mm 4 mps 749 mmHg 58%

    21 October, Sunday

    Time Temperature Precipitation Wind Pressure Humidity
    00:00 +23°C° 0 mm 4 mps 749 mmHg 58%
    01:00 +24°C° 0 mm 3 mps 749 mmHg 60%
    02:00 +24°C° 0 mm 3 mps 749 mmHg 61%
    03:00 +22°C° 0 mm 3 mps 749 mmHg 63%
    04:00 +22°C° 0 mm 3 mps 749 mmHg 64%
    05:00 +22°C° 0 mm 3 mps 749 mmHg 65%
    06:00 +22°C° 0 mm 4 mps 749 mmHg 67%
    07:00 +24°C° 0 mm 3 mps 749 mmHg 60%
    08:00 +26°C° 0 mm 3 mps 749 mmHg 54%
    09:00 +27°C° 0 mm 3 mps 750 mmHg 48%
    10:00 +29°C° 0 mm 3 mps 750 mmHg 44%
    11:00 +30°C° 0 mm 3 mps 750 mmHg 40%
    12:00 +31°C° 0 mm 3 mps 750 mmHg 35%
    13:00 +31°C° 0 mm 3 mps 749 mmHg 34%
    14:00 +32°C° 0 mm 4 mps 749 mmHg 34%
    15:00 +32°C° 0 mm 4 mps 749 mmHg 33%
    16:00 +29°C° 0 mm 4 mps 749 mmHg 39%
    17:00 +28°C° 0 mm 3 mps 749 mmHg 46%
    18:00 +26°C° 0 mm 3 mps 749 mmHg 52%
    19:00 +26°C° 0 mm 3 mps 750 mmHg 54%
    20:00 +25°C° 0 mm 2 mps 750 mmHg 56%
    21:00 +25°C° 0 mm 2 mps 750 mmHg 57%
    22:00 +25°C° 0 mm 2 mps 750 mmHg 57%
    23:00 +24°C° 0 mm 2 mps 750 mmHg 57%

    22 October, Monday

    Time Temperature Precipitation Wind Pressure Humidity
    00:00 +24°C° 0 mm 2 mps 750 mmHg 57%
    01:00 +24°C° 0 mm 2 mps 749 mmHg 57%
    02:00 +24°C° 0 mm 2 mps 749 mmHg 57%
    03:00 +23°C° 0 mm 2 mps 749 mmHg 57%
    04:00 +23°C° 0 mm 1 mps 749 mmHg 59%
    05:00 +23°C° 0 mm 1 mps 750 mmHg 61%
    06:00 +22°C° 0 mm 1 mps 750 mmHg 63%
    07:00 +24°C° 0 mm 1 mps 750 mmHg 58%
    08:00 +25°C° 0 mm 1 mps 750 mmHg 53%
    09:00 +27°C° 0 mm 1 mps 750 mmHg 48%
    10:00 +28°C° 0 mm 1 mps 750 mmHg 46%
    11:00 +28°C° 0 mm 1 mps 750 mmHg 44%
    12:00 +29°C° 0 mm 2 mps 750 mmHg 42%
    13:00 +29°C° 0 mm 2 mps 749 mmHg 43%
    14:00 +29°C° 0 mm 3 mps 749 mmHg 45%
    15:00 +28°C° 0 mm 3 mps 749 mmHg 47%
    16:00 +27°C° 0 mm 3 mps 749 mmHg 54%
    17:00 +26°C° 0 mm 3 mps 749 mmHg 61%
    18:00 +24°C° 0 mm 3 mps 749 mmHg 68%
    19:00 +24°C° 0 mm 3 mps 749 mmHg 70%
    20:00 +24°C° 0 mm 3 mps 749 mmHg 71%
    21:00 +23°C° 0 mm 2 mps 750 mmHg 73%
    22:00 +23°C° 0 mm 2 mps 749 mmHg 72%
    23:00 +23°C° 0 mm 2 mps 749 mmHg 72%
    Show more